PBO Station Position Time Series. Reference Frame : NAM14
Format Version,1.1.1
4-character ID,AB09
Station name,Razorback_AK2007
Begin Date, 2007-07-24
End Date, 2023-06-03
Release Date, 2023-06-22
Reference position, 65.6149809829 North Latitude, -168.0621250349 East Longitude, 162.09409 meters elevation,
Date, North (mm), East (mm), Vertical (mm), North Std. Deviation (mm), East Std. Deviation (mm),              Vertical Std. Deviation (mm), Quality,
2007-07-24,0.00, 0.00, 0.00, 2.14, 1.50, 7.71, repro,
2007-07-25,-4.16, -1.02, -9.00, 2.13, 1.48, 7.75, repro,
2007-07-26,-3.63, -0.30, -12.99, 2.12, 1.47, 7.70, repro,
2007-07-27,-2.88, -0.89, -10.66, 2.13, 1.48, 7.73, repro,
2007-07-28,-1.74, 0.29, -8.46, 2.13, 1.49, 7.71, repro,
2007-07-29,0.71, 0.46, -13.97, 2.13, 1.48, 7.69, repro,
2007-07-30,-0.67, 0.29, -7.25, 2.09, 1.47, 7.63, repro,
2007-07-31,0.06, 0.63, -11.16, 2.12, 1.48, 7.71, repro,
2007-08-01,0.86, -0.15, -16.75, 2.15, 1.49, 7.79, repro,
2007-08-02,-2.26, 0.36, -18.96, 2.12, 1.49, 7.68, repro,
2007-08-03,-0.94, 1.04, -8.67, 2.11, 1.49, 7.72, repro,
2007-08-04,-4.48, -0.02, -18.59, 2.11, 1.48, 7.72, repro,
2007-08-05,-0.09, -0.57, -14.42, 2.12, 1.48, 7.70, repro,
2007-08-06,-0.69, 0.12, -18.78, 2.15, 1.51, 7.78, repro,
2007-08-07,-0.40, -0.03, -18.06, 2.19, 1.51, 7.86, repro,
2007-08-08,-0.67, 0.58, -11.89, 2.12, 1.49, 7.71, repro,
2007-08-09,1.50, 1.29, -14.23, 2.12, 1.50, 7.75, repro,
2007-08-10,-4.31, 2.32, -22.17, 2.22, 1.54, 7.96, repro,
2007-08-11,-2.72, 0.47, -22.10, 2.14, 1.49, 7.72, repro,
2007-08-12,3.68, 7.82, -29.87, 2.14, 1.49, 7.71, repro,
2007-08-13,-2.25, 0.01, -27.89, 2.16, 1.49, 7.78, repro,
2007-08-14,-2.65, -1.90, -14.65, 2.32, 1.63, 8.27, repro,
2007-08-15,-0.06, 1.47, -15.99, 2.25, 1.57, 8.13, repro,
2007-08-16,-1.19, 1.56, -7.04, 2.21, 1.53, 8.08, repro,
2007-08-17,-4.60, 0.89, -12.23, 2.21, 1.52, 8.06, repro,
2007-08-18,-1.70, 0.15, -9.02, 2.24, 1.57, 8.20, repro,
2007-08-19,-1.37, -0.52, -7.92, 2.22, 1.56, 8.15, repro,
2007-08-20,-1.14, 0.09, -11.41, 2.18, 1.51, 8.00, repro,
2007-08-21,-0.14, -0.24, -10.19, 2.16, 1.51, 7.95, repro,
2007-08-22,-0.87, 1.57, -17.76, 2.18, 1.53, 8.00, repro,
2007-08-23,-1.31, 1.03, -10.82, 2.15, 1.50, 7.85, repro,
2007-08-24,-0.04, -0.22, -4.93, 2.26, 1.55, 8.28, repro,
2007-08-25,0.02, -0.54, -6.69, 2.22, 1.54, 8.04, repro,
2007-08-26,0.20, -0.63, -8.02, 2.29, 1.55, 8.18, repro,
2007-08-27,0.68, -0.12, -15.89, 2.22, 1.55, 8.07, repro,
2007-08-28,-0.37, -0.44, -16.36, 2.21, 1.53, 8.06, repro,
2007-08-29,-0.43, 0.67, -11.26, 2.22, 1.54, 8.06, repro,
2007-08-30,1.02, -0.59, -15.19, 2.37, 1.72, 8.11, repro,
2007-08-31,-0.42, -0.90, -10.15, 2.19, 1.54, 8.02, repro,
2007-09-01,-0.73, -1.06, -11.57, 2.23, 1.54, 8.07, repro,
2007-09-02,0.65, 0.08, -12.01, 2.20, 1.54, 8.00, repro,
2007-09-03,0.49, -0.26, -2.43, 2.21, 1.54, 7.98, repro,
2007-09-04,-0.68, -0.20, -10.73, 2.21, 1.53, 7.99, repro,
2007-09-05,-0.27, -0.33, -8.86, 2.27, 1.55, 8.20, repro,
2007-09-06,-0.31, 0.07, -10.24, 2.22, 1.53, 8.00, repro,
2007-09-07,-4.33, 0.32, -19.82, 2.22, 1.54, 8.06, repro,
2007-09-08,-2.87, 0.62, -17.21, 2.24, 1.57, 8.11, repro,
2007-09-09,-4.78, 0.61, -22.60, 2.26, 1.57, 8.25, repro,
2007-09-10,-2.66, 1.46, -23.72, 2.20, 1.53, 8.05, repro,
2007-09-11,-1.25, -0.16, -29.40, 2.20, 1.52, 7.97, repro,
2007-09-12,-1.32, 2.14, -20.33, 2.23, 1.55, 8.17, repro,
2007-09-13,1.47, 1.61, -6.24, 2.20, 1.52, 8.01, repro,
2007-09-14,-0.75, 2.96, -11.97, 2.22, 1.54, 8.07, repro,
2007-09-15,-3.69, 0.40, -17.03, 2.25, 1.60, 8.17, repro,
2007-09-16,-0.06, -0.01, -16.17, 2.24, 1.56, 8.16, repro,
2007-09-17,-3.03, -1.35, -18.76, 2.20, 1.54, 8.05, repro,
2007-09-18,-1.72, 0.85, -24.64, 2.24, 1.55, 8.04, repro,
2007-09-19,-5.46, -0.81, -14.61, 2.12, 1.48, 7.71, repro,
2007-09-20,-1.52, -1.12, -15.11, 2.14, 1.49, 7.74, repro,
2007-09-21,0.11, -1.24, -12.30, 2.16, 1.48, 7.81, repro,
2007-09-22,-2.84, -0.64, -15.76, 2.18, 1.52, 7.79, repro,
2007-09-23,-1.57, -0.08, -9.73, 2.14, 1.47, 7.65, repro,
2007-09-24,-1.66, -1.08, -9.92, 2.18, 1.51, 7.89, repro,
2007-09-25,-1.26, -0.25, -16.97, 2.15, 1.49, 7.91, repro,
2007-09-26,1.55, -1.57, -14.42, 2.13, 1.49, 7.75, repro,
2007-09-27,-0.27, -2.50, -11.22, 2.19, 1.53, 7.85, repro,
2007-09-28,-0.09, -3.12, -8.03, 2.16, 1.49, 7.78, repro,
2007-09-29,0.21, -2.53, -3.71, 2.19, 1.51, 7.79, repro,
2007-09-30,-0.26, -1.56, -4.24, 2.15, 1.48, 7.79, repro,
2007-10-01,-1.81, -1.58, -5.73, 2.16, 1.51, 7.86, repro,
2007-10-02,-0.33, -2.38, -12.95, 2.21, 1.55, 7.89, repro,
2007-10-03,1.36, -2.53, -10.66, 2.21, 1.54, 7.81, repro,
2007-10-04,0.16, -1.82, -12.75, 2.22, 1.54, 7.86, repro,
2007-10-05,-0.53, -2.90, 0.56, 2.13, 1.49, 7.73, repro,
2007-10-06,-0.89, -3.04, -1.43, 2.11, 1.49, 7.72, repro,
2007-10-07,0.21, -2.51, -5.31, 2.13, 1.49, 7.73, repro,
2007-10-08,0.32, -0.37, -10.10, 2.31, 1.61, 8.45, repro,
2007-10-09,0.39, -1.60, -8.45, 2.32, 1.63, 8.27, repro,
2007-10-10,-0.92, -3.55, -10.34, 2.20, 1.55, 8.14, repro,
2007-10-11,-0.93, -1.17, -2.54, 2.10, 1.48, 7.70, repro,
2007-10-12,-0.04, -1.84, -9.75, 2.12, 1.49, 7.72, repro,
2007-10-13,0.83, -2.15, -8.20, 2.13, 1.49, 7.76, repro,
2007-10-14,-0.89, -1.70, -6.66, 2.16, 1.50, 7.87, repro,
2007-10-15,-1.38, -1.16, -8.88, 2.13, 1.49, 7.75, repro,
2007-10-16,0.11, -1.19, -12.25, 2.10, 1.47, 7.64, repro,
2007-10-17,0.73, -1.04, -13.22, 2.21, 1.55, 7.88, repro,
2007-10-18,0.57, -2.28, -9.91, 2.18, 1.52, 7.88, repro,
2007-10-19,-0.48, -3.15, -6.49, 2.18, 1.50, 7.85, repro,
2007-10-20,0.43, -2.92, -9.43, 2.15, 1.49, 7.80, repro,
2007-10-21,1.20, -1.75, -9.65, 2.12, 1.48, 7.70, repro,
2007-10-22,0.67, -1.68, -6.40, 2.16, 1.52, 7.74, repro,
2007-10-23,-0.28, -2.17, -8.87, 2.16, 1.51, 7.87, repro,
2007-10-24,1.19, -2.67, -13.16, 2.18, 1.52, 7.89, repro,
2007-10-25,1.42, -0.90, -13.87, 2.23, 1.53, 8.03, repro,
2007-10-26,-0.03, -1.21, -5.29, 2.25, 1.54, 8.05, repro,
2007-10-27,-4.84, -0.28, -15.18, 2.18, 1.51, 7.86, repro,
2007-10-28,0.89, -1.69, -11.29, 2.16, 1.49, 7.77, repro,
2007-10-29,0.71, -0.96, -9.61, 2.17, 1.50, 7.90, repro,
2007-10-30,0.04, -4.20, -5.96, 2.17, 1.51, 7.86, repro,
2007-10-31,-0.96, -3.16, -4.16, 2.18, 1.51, 7.90, repro,
2007-11-01,-0.42, -3.05, -1.56, 2.14, 1.47, 7.74, repro,
2007-11-02,0.01, -3.15, 0.73, 2.11, 1.47, 7.67, repro,
2007-11-03,-0.13, -3.07, -0.82, 2.12, 1.47, 7.68, repro,
2007-11-04,0.92, -1.61, -7.64, 2.15, 1.49, 7.83, repro,
2007-11-05,0.01, -1.48, -12.27, 2.14, 1.48, 7.78, repro,
2007-11-06,-0.93, -0.45, -16.22, 2.13, 1.48, 7.75, repro,
2007-11-07,-1.46, -3.23, -6.53, 2.11, 1.48, 7.69, repro,
2007-11-08,-0.40, -2.39, -1.86, 2.14, 1.49, 7.75, repro,
2007-11-09,0.74, -2.34, 8.57, 2.17, 1.51, 7.87, repro,
2007-11-10,-1.27, -0.58, 10.25, 2.15, 1.48, 7.77, repro,
2007-11-11,-0.91, -0.29, 2.26, 2.12, 1.47, 7.71, repro,
2007-11-12,-0.15, -0.12, -8.43, 2.16, 1.52, 7.83, repro,
2007-11-13,-0.21, -0.11, -7.83, 2.14, 1.49, 7.73, repro,
2007-11-14,-0.13, -1.48, -8.49, 2.11, 1.48, 7.70, repro,
2007-11-15,-0.60, -1.25, 0.12, 2.14, 1.48, 7.77, repro,
2007-11-16,-0.80, -0.20, 5.18, 2.15, 1.49, 7.78, repro,
2007-11-17,-0.94, 1.36, 2.68, 2.14, 1.48, 7.74, repro,
2007-11-18,-1.49, 1.24, -3.77, 2.14, 1.48, 7.76, repro,
2007-11-19,-1.90, 0.30, -11.88, 2.14, 1.48, 7.78, repro,
2007-11-20,-1.46, 0.31, -1.34, 2.54, 1.74, 8.69, repro,
2007-11-21,-2.42, -0.43, -0.88, 2.28, 1.56, 8.15, repro,
2007-11-22,-4.15, 0.59, -5.86, 2.17, 1.49, 7.79, repro,
2007-11-23,-2.93, 0.27, -1.37, 2.22, 1.54, 8.05, repro,
2007-11-24,-3.29, -0.33, -5.98, 2.19, 1.50, 7.91, repro,
2007-11-25,-0.79, -0.07, -11.49, 2.17, 1.50, 7.93, repro,
2007-11-26,-1.19, -1.25, -2.37, 2.40, 1.64, 8.91, repro,
2007-11-27,-4.79, 0.24, -25.25, 2.28, 1.53, 8.30, repro,
2007-11-28,-2.16, 2.56, -23.68, 2.20, 1.49, 7.89, repro,
2007-11-29,-2.23, 4.59, -20.53, 2.34, 1.60, 8.61, repro,
2007-11-30,-0.46, 3.16, -20.64, 2.23, 1.51, 8.03, repro,
2007-12-01,2.27, 2.43, -15.32, 2.28, 1.54, 8.15, repro,
2007-12-02,-3.67, 1.44, -12.42, 2.31, 1.59, 8.36, repro,
2007-12-03,-1.30, -1.05, -11.93, 2.38, 1.62, 8.81, repro,
2007-12-04,-1.81, -1.75, -4.40, 2.38, 1.64, 8.83, repro,
2007-12-05,-3.85, 0.18, -11.25, 2.33, 1.59, 8.55, repro,
2007-12-06,0.30, 2.18, -13.89, 2.34, 1.61, 8.56, repro,
2007-12-07,4.02, 2.19, -20.83, 2.32, 1.59, 8.61, repro,
2007-12-08,0.72, 2.02, -17.66, 2.28, 1.57, 8.44, repro,
2007-12-09,-0.35, -0.11, -22.48, 2.47, 1.69, 9.04, repro,
2007-12-10,-1.46, 2.12, -13.27, 2.34, 1.60, 8.89, repro,
2007-12-11,0.77, 2.10, -4.73, 2.30, 1.56, 8.51, repro,
2007-12-12,-2.91, 2.09, -18.52, 2.22, 1.52, 8.10, repro,
2007-12-13,-1.43, 2.45, -14.81, 2.28, 1.58, 8.69, repro,
2007-12-14,0.94, 1.60, -20.33, 2.17, 1.49, 7.97, repro,
2007-12-15,0.88, -1.03, -14.34, 2.21, 1.52, 8.31, repro,
2007-12-16,-0.50, -0.92, -21.07, 2.21, 1.52, 8.29, repro,
2007-12-17,0.65, -1.21, -23.06, 2.25, 1.55, 8.43, repro,
2007-12-18,-0.84, -1.00, -19.47, 2.22, 1.52, 8.06, repro,
2007-12-19,1.23, -1.33, -17.90, 2.32, 1.60, 8.46, repro,
2007-12-20,-0.62, -0.60, -17.30, 2.26, 1.54, 8.38, repro,
2007-12-21,-1.19, -1.00, -21.86, 2.35, 1.61, 8.81, repro,
2007-12-22,-1.07, -1.09, -5.83, 2.42, 1.67, 9.17, repro,
2007-12-23,-0.29, -1.89, -7.20, 2.32, 1.60, 8.50, repro,
2007-12-24,-1.01, -1.40, -6.68, 2.26, 1.55, 8.29, repro,
2007-12-25,-1.14, -0.02, -15.03, 2.22, 1.53, 8.27, repro,
2007-12-26,0.08, 0.36, -22.54, 2.22, 1.54, 8.35, repro,
2007-12-27,-2.91, -0.61, -17.73, 2.27, 1.58, 8.31, repro,
2007-12-28,-0.09, -0.77, -7.69, 2.26, 1.56, 8.26, repro,
2007-12-29,-1.11, -0.08, -21.79, 2.19, 1.52, 7.93, repro,
2007-12-30,-0.92, -0.70, -22.53, 2.21, 1.53, 7.98, repro,
2007-12-31,0.21, -1.30, -17.21, 2.25, 1.55, 8.47, repro,
2008-01-01,-0.67, -0.84, -12.73, 2.19, 1.51, 8.04, repro,
2008-01-02,-0.34, -1.15, -8.66, 2.15, 1.50, 7.91, repro,
2008-01-03,-0.53, -0.90, -5.60, 2.10, 1.47, 7.73, repro,
2008-01-04,-1.16, -0.95, -5.14, 2.14, 1.48, 7.86, repro,
2008-01-05,-0.15, -0.71, -7.72, 2.18, 1.53, 8.04, repro,
2008-01-06,-1.06, -0.61, -12.64, 2.15, 1.50, 7.95, repro,
2008-01-07,-1.71, -0.08, -13.20, 2.11, 1.47, 7.78, repro,
2008-01-08,-0.14, -0.27, -9.40, 2.10, 1.47, 7.90, repro,
2008-01-09,-0.98, -0.11, -10.43, 2.12, 1.48, 7.99, repro,
2008-01-10,-1.73, 1.06, -14.39, 2.12, 1.47, 7.75, repro,
2008-01-11,-0.77, 1.05, -15.57, 2.16, 1.50, 8.08, repro,
2008-01-12,-0.50, 0.45, -19.88, 2.11, 1.48, 7.79, repro,
2008-01-13,-0.57, 1.50, -24.50, 2.11, 1.47, 7.74, repro,
2008-01-14,-1.05, 0.94, -21.32, 2.14, 1.48, 8.07, repro,
2008-01-15,-1.88, 2.30, -24.10, 2.13, 1.47, 7.71, repro,
2008-01-16,-2.79, 3.49, -17.42, 2.19, 1.50, 8.01, repro,
2008-01-17,-2.15, 2.85, -33.03, 2.19, 1.51, 8.07, repro,
2008-01-18,-2.92, 4.09, -26.06, 2.16, 1.52, 7.90, repro,
2008-01-19,-2.16, 2.87, -23.46, 2.11, 1.49, 7.83, repro,
2008-01-20,0.78, 0.39, -22.60, 2.11, 1.48, 7.72, repro,
2008-01-21,-1.92, -0.41, -28.89, 2.19, 1.51, 7.86, repro,
2008-01-22,0.70, -1.36, -9.82, 2.14, 1.48, 7.85, repro,
2008-01-23,-2.48, -0.72, -25.24, 2.15, 1.50, 7.95, repro,
2008-01-24,-2.13, -0.87, -25.84, 2.14, 1.49, 7.90, repro,
2008-01-25,-3.23, -1.69, -12.09, 2.35, 1.61, 8.84, repro,
2008-01-26,-1.00, -0.12, -16.27, 2.20, 1.53, 8.59, repro,
2008-01-27,-1.38, 0.21, -9.15, 2.18, 1.51, 8.25, repro,
2008-01-28,-0.05, 0.05, -6.95, 2.16, 1.51, 8.19, repro,
2008-01-29,-3.85, 1.72, -16.80, 2.41, 1.66, 8.73, repro,
2008-01-30,-1.90, 1.95, -17.51, 2.37, 1.65, 9.14, repro,
2008-01-31,-2.66, 2.09, -11.26, 2.29, 1.56, 8.71, repro,
2008-02-01,-3.13, 2.01, -8.52, 2.28, 1.56, 8.80, repro,
2008-02-02,-3.73, 2.68, -15.06, 2.22, 1.53, 8.33, repro,
2008-02-03,-3.18, 3.25, -13.24, 2.21, 1.52, 8.17, repro,
2008-02-04,-2.77, 2.77, -12.79, 2.13, 1.48, 7.71, repro,
2008-02-05,-2.08, 0.11, -12.14, 2.23, 1.56, 8.31, repro,
2008-02-06,-2.01, 0.11, -10.93, 2.26, 1.57, 8.41, repro,
2008-02-07,-0.18, 0.86, -15.58, 2.21, 1.53, 8.05, repro,
2008-02-08,-0.11, -0.28, -26.96, 2.16, 1.51, 8.08, repro,
2008-02-09,0.86, 0.30, -17.94, 2.14, 1.49, 7.91, repro,
2008-02-10,0.47, -0.48, -18.47, 2.21, 1.51, 7.85, repro,
2008-02-11,-1.18, -1.87, -15.81, 2.18, 1.50, 8.02, repro,
2008-02-12,-1.41, -1.06, -12.83, 2.17, 1.48, 7.85, repro,
2008-02-13,-0.36, -0.18, -22.66, 2.14, 1.49, 7.79, repro,
2008-02-14,-0.52, -0.77, 4.18, 2.14, 1.48, 7.79, repro,
2008-02-15,-2.92, 0.16, -7.20, 2.17, 1.49, 7.84, repro,
2008-02-16,-1.03, -0.07, -22.82, 2.16, 1.46, 7.73, repro,
2008-02-17,0.22, -0.41, -16.40, 2.16, 1.49, 7.80, repro,
2008-02-18,-0.46, -1.52, -11.44, 2.50, 1.72, 9.22, repro,
2008-02-19,0.36, -0.05, -21.05, 2.18, 1.50, 7.88, repro,
2008-02-20,-0.29, -1.57, -8.43, 2.13, 1.46, 7.70, repro,
2008-02-21,-0.13, -2.26, -9.77, 2.15, 1.47, 7.74, repro,
2008-02-22,0.78, -2.16, -18.19, 2.15, 1.47, 7.75, repro,
2008-02-23,0.10, -0.72, -26.34, 2.16, 1.49, 7.82, repro,
2008-02-24,0.64, 0.06, -24.17, 2.13, 1.48, 7.70, repro,
2008-02-25,0.23, 1.58, -20.89, 2.15, 1.47, 7.80, repro,
2008-02-26,-0.69, 1.28, -19.01, 2.12, 1.46, 7.66, repro,
2008-02-27,0.33, 1.44, -15.19, 2.17, 1.47, 7.76, repro,
2008-02-28,-1.37, 0.53, -20.01, 2.20, 1.49, 7.86, repro,
2008-02-29,-1.43, 0.32, -15.50, 2.19, 1.51, 7.97, repro,
2008-03-01,-1.82, 0.37, -17.83, 2.14, 1.48, 7.76, repro,
2008-03-02,-0.82, -0.55, -12.79, 2.12, 1.47, 7.75, repro,
2008-03-03,-0.46, -0.03, -19.26, 2.14, 1.47, 7.78, repro,
2008-03-04,-0.92, 0.06, -17.59, 2.15, 1.47, 7.76, repro,
2008-03-05,-2.43, 0.25, -18.54, 2.23, 1.53, 7.94, repro,
2008-03-06,-1.90, -0.14, -3.85, 2.12, 1.47, 7.71, repro,
2008-03-07,-1.11, -0.19, -10.65, 2.15, 1.47, 7.83, repro,
2008-03-08,-1.21, -0.19, -10.36, 2.20, 1.52, 7.97, repro,
2008-03-09,-1.44, 0.31, -14.12, 2.24, 1.58, 8.15, repro,
2008-03-10,-2.07, 0.98, -12.87, 2.14, 1.47, 7.78, repro,
2008-03-11,-2.37, 0.76, -18.41, 2.12, 1.48, 7.75, repro,
2008-03-12,-5.12, 2.28, -26.38, 2.14, 1.47, 7.83, repro,
2008-03-13,-2.88, 1.46, -25.69, 2.14, 1.47, 7.83, repro,
2008-03-14,-3.80, 1.87, -28.74, 2.14, 1.47, 7.82, repro,
2008-03-15,-3.38, 1.62, -15.38, 2.19, 1.49, 7.96, repro,
2008-03-16,-4.71, 1.33, -9.60, 2.14, 1.46, 7.80, repro,
2008-03-17,-4.23, 0.44, -7.81, 2.23, 1.54, 8.02, repro,
2008-03-18,-4.20, 0.10, -13.82, 2.23, 1.54, 8.06, repro,
2008-03-19,-4.16, -0.90, -12.34, 2.20, 1.52, 7.92, repro,
2008-03-20,-2.36, 1.24, -11.67, 2.19, 1.52, 7.90, repro,
2008-03-21,-3.98, 0.69, -10.95, 2.17, 1.51, 7.79, repro,
2008-03-22,-4.20, 0.72, -13.75, 2.20, 1.50, 7.83, repro,
2008-03-23,-2.44, 0.94, -10.85, 2.19, 1.52, 7.91, repro,
2008-03-24,-5.31, 0.07, -9.58, 2.21, 1.52, 7.94, repro,
2008-03-25,-4.91, 1.08, -12.31, 2.26, 1.56, 7.94, repro,
2008-03-26,-5.37, 1.51, -15.16, 2.29, 1.59, 8.16, repro,
2008-03-27,-5.96, 2.48, -20.32, 2.29, 1.58, 8.05, repro,
2008-03-28,-5.64, 1.90, -20.97, 2.18, 1.53, 7.88, repro,
2008-03-29,-4.32, 1.82, -25.54, 2.17, 1.49, 7.77, repro,
2008-03-30,-6.42, 1.91, -11.78, 2.19, 1.50, 7.84, repro,
2008-03-31,-4.99, 1.84, -15.58, 2.18, 1.50, 7.77, repro,
2008-04-01,-7.95, 2.28, -25.99, 2.15, 1.50, 7.75, repro,
2008-04-02,-3.74, 1.81, -21.70, 2.18, 1.51, 7.92, repro,
2008-04-03,-6.07, 2.24, -24.05, 2.17, 1.49, 7.77, repro,
2008-04-04,-3.19, 0.37, -20.10, 2.18, 1.49, 7.81, repro,
2008-04-05,-4.41, 1.52, -23.11, 2.19, 1.50, 7.88, repro,
2008-04-06,-5.11, 1.65, -24.33, 2.19, 1.50, 7.85, repro,
2008-04-07,-5.68, 2.56, -24.69, 2.17, 1.49, 7.76, repro,
2008-04-08,-5.17, 1.90, -22.04, 2.18, 1.50, 7.84, repro,
2008-04-09,-4.00, 1.37, -24.13, 2.16, 1.49, 7.76, repro,
2008-04-10,-5.96, 1.27, -22.68, 2.18, 1.50, 7.82, repro,
2008-04-11,-5.88, 2.58, -29.00, 2.17, 1.49, 7.84, repro,
2008-04-12,-5.63, 2.13, -29.60, 2.15, 1.51, 7.82, repro,
2008-04-13,-3.65, 1.46, -13.17, 2.13, 1.50, 7.70, repro,
2008-04-14,-5.01, 1.56, -13.04, 2.14, 1.49, 7.72, repro,
2008-04-15,-3.81, 1.60, -18.74, 2.21, 1.53, 8.01, repro,
2008-04-16,-4.16, 2.65, -20.96, 2.23, 1.52, 7.93, repro,
2008-04-17,-5.77, 3.19, -25.00, 2.16, 1.50, 7.78, repro,
2008-04-18,-2.67, 5.89, -30.46, 2.13, 1.49, 7.67, repro,
2008-04-19,-3.78, 5.02, -32.02, 2.15, 1.49, 7.75, repro,
2008-04-20,-1.08, 2.42, -30.15, 2.22, 1.51, 7.89, repro,
2008-04-21,-6.22, 3.55, -41.41, 2.17, 1.50, 7.83, repro,
2008-04-22,-9.50, 2.43, -45.61, 2.17, 1.49, 7.81, repro,
2008-04-23,2.48, 6.80, -29.43, 2.30, 1.57, 8.30, repro,
2008-04-24,-2.23, 3.76, -24.88, 2.21, 1.52, 7.98, repro,
2008-04-25,-3.22, 1.80, -28.22, 2.14, 1.49, 7.71, repro,
2008-04-26,-3.03, 2.43, -23.34, 2.22, 1.54, 8.00, repro,
2008-04-27,-2.73, 1.38, -20.07, 2.21, 1.54, 7.90, repro,
2008-04-28,-2.40, 2.73, -22.87, 2.22, 1.54, 7.88, repro,
2008-04-29,-3.17, 3.01, -20.99, 2.28, 1.59, 8.19, repro,
2008-04-30,-1.57, 2.82, -25.83, 2.14, 1.49, 7.71, repro,
2008-05-01,-1.86, 2.30, -20.99, 2.17, 1.50, 7.80, repro,
2008-05-02,-1.83, 2.21, -24.38, 2.14, 1.49, 7.72, repro,
2008-05-03,-1.69, 2.83, -14.81, 2.18, 1.50, 7.76, repro,
2008-05-04,-1.83, 2.03, -17.11, 2.16, 1.50, 7.79, repro,
2008-05-05,-1.08, 3.22, -21.23, 2.16, 1.50, 7.81, repro,
2008-05-06,-2.50, 2.43, -25.21, 2.20, 1.54, 7.85, repro,
2008-05-07,-1.79, 2.87, -24.78, 2.18, 1.49, 7.82, repro,
2008-05-08,-2.10, 2.24, -27.36, 2.17, 1.51, 7.82, repro,
2008-05-09,-1.51, 1.08, -29.12, 2.17, 1.50, 7.79, repro,
2008-05-10,-1.20, 1.27, -29.49, 2.16, 1.50, 7.76, repro,
2008-05-11,-1.73, 2.32, -24.35, 2.15, 1.49, 7.66, repro,
2008-05-12,-1.97, 1.15, -14.20, 2.15, 1.50, 7.70, repro,
2008-05-13,-2.09, 0.83, -13.72, 2.18, 1.52, 7.85, repro,
2008-05-14,-2.21, 1.65, -23.77, 2.16, 1.51, 7.81, repro,
2008-05-15,-2.21, 1.96, -21.47, 2.16, 1.51, 7.79, repro,
2008-05-16,-0.75, 1.44, -28.24, 2.15, 1.50, 7.72, repro,
2008-05-17,-2.48, 3.25, -31.00, 2.15, 1.50, 7.71, repro,
2008-05-18,-0.59, 2.34, -28.85, 2.16, 1.49, 7.72, repro,
2008-05-19,-1.47, 2.35, -32.55, 2.14, 1.50, 7.75, repro,
2008-05-20,-1.34, 2.50, -26.48, 2.17, 1.51, 7.87, repro,
2008-05-21,-1.41, 3.08, -22.11, 2.16, 1.50, 7.86, repro,
2008-05-22,-0.49, 2.66, -32.00, 2.18, 1.51, 7.79, repro,
2008-05-23,-0.26, 2.10, -28.02, 2.21, 1.51, 7.88, repro,
2008-05-24,-1.16, 1.34, -30.67, 2.22, 1.52, 7.98, repro,
2008-05-25,-2.52, 2.37, -39.73, 2.23, 1.54, 8.02, repro,
2008-05-26,-0.69, 1.96, -30.55, 2.18, 1.51, 7.85, repro,
2008-05-27,-0.93, 1.19, -28.22, 2.20, 1.52, 7.85, repro,
2008-05-28,-0.14, 1.52, -27.74, 2.16, 1.50, 7.74, repro,
2008-05-29,-0.83, 1.63, -25.18, 2.12, 1.50, 7.70, repro,
2008-12-18,-0.66, 5.55, -11.86, 2.14, 1.51, 7.79, repro,
2008-12-19,10.28, 4.76, -0.43, 2.20, 1.58, 7.97, repro,
2008-12-20,14.63, 4.81, -2.88, 2.30, 1.62, 7.96, repro,
2008-12-21,16.01, 4.74, 5.12, 2.22, 1.58, 7.72, repro,
2008-12-22,8.56, 3.42, 2.42, 2.13, 1.51, 7.73, repro,
2008-12-23,8.67, 3.78, 7.99, 2.15, 1.51, 7.85, repro,
2008-12-24,6.33, 2.45, 3.50, 2.15, 1.50, 7.73, repro,
2008-12-25,6.40, 1.53, 7.06, 2.15, 1.53, 7.85, repro,
2008-12-26,6.88, 1.16, 4.27, 2.15, 1.52, 7.79, repro,
2008-12-27,7.39, 0.47, 6.40, 2.15, 1.51, 7.76, repro,
2008-12-28,8.04, 1.62, 6.03, 2.16, 1.50, 7.76, repro,
2008-12-29,8.68, 2.55, 0.34, 2.18, 1.52, 7.91, repro,
2008-12-30,6.44, 2.93, -0.60, 2.15, 1.51, 7.80, repro,
2008-12-31,7.80, 2.63, -7.39, 2.18, 1.52, 7.87, repro,
2009-01-01,6.27, 3.10, -4.12, 2.15, 1.52, 7.89, repro,
2009-01-02,6.38, 2.83, -1.55, 2.18, 1.51, 7.87, repro,
2009-01-03,6.64, 3.23, -3.23, 2.14, 1.50, 7.75, repro,
2009-01-04,5.90, 3.01, 5.38, 2.15, 1.52, 7.82, repro,
2009-01-05,7.22, 2.25, 2.54, 2.14, 1.51, 7.77, repro,
2009-01-06,7.55, 1.50, -4.67, 2.22, 1.57, 7.97, repro,
2009-01-07,7.97, 0.61, -4.30, 2.17, 1.52, 7.82, repro,
2009-01-08,6.42, 0.31, -1.91, 2.19, 1.56, 7.87, repro,
2009-01-09,8.49, -0.34, 0.24, 2.19, 1.57, 8.02, repro,
2009-01-10,10.25, 0.82, 0.53, 2.15, 1.53, 7.84, repro,
2009-01-11,9.48, 1.02, -1.14, 2.23, 1.57, 8.29, repro,
2009-01-12,8.78, 1.15, 8.30, 2.22, 1.57, 8.49, repro,
2009-01-13,8.20, 2.08, 6.05, 2.25, 1.57, 8.56, repro,
2009-01-14,9.21, 0.77, 12.77, 2.18, 1.53, 7.95, repro,
2009-01-15,7.90, 0.00, 16.85, 2.19, 1.53, 7.92, repro,
2009-01-16,10.54, 0.25, 5.62, 2.16, 1.52, 7.74, repro,
2009-01-17,12.41, 3.19, 23.50, 2.22, 1.55, 8.15, repro,
2009-01-18,8.13, 3.98, -4.79, 2.21, 1.55, 8.14, repro,
2009-01-19,10.67, 3.10, -4.11, 2.26, 1.63, 8.27, repro,
2009-01-20,9.89, 3.32, -15.90, 2.26, 1.66, 8.49, repro,
2009-01-21,2.75, 3.40, -14.53, 2.24, 1.62, 8.19, repro,
2009-01-22,-1.07, 3.50, -11.92, 2.18, 1.54, 7.98, repro,
2009-01-23,1.14, 1.83, -13.93, 2.29, 1.64, 8.53, repro,
2009-01-24,-0.23, 1.47, -15.67, 2.20, 1.54, 8.15, repro,
2009-01-25,0.97, 1.40, -8.71, 2.13, 1.51, 7.70, repro,
2009-01-26,0.35, 1.53, -5.93, 2.13, 1.52, 7.74, repro,
2009-01-27,1.19, 0.64, -6.34, 2.16, 1.53, 7.85, repro,
2009-01-28,2.75, 0.99, -9.21, 2.16, 1.52, 7.75, repro,
2009-01-29,2.32, -0.31, -7.75, 2.21, 1.54, 7.84, repro,
2009-01-30,1.94, 0.04, -1.04, 2.16, 1.51, 7.84, repro,
2009-01-31,0.97, 0.71, -3.98, 2.15, 1.52, 7.71, repro,
2009-02-01,1.22, 0.77, -12.85, 2.15, 1.52, 7.77, repro,
2009-02-02,1.31, 0.81, -6.56, 2.19, 1.51, 7.77, repro,
2009-02-03,0.56, 1.29, -10.41, 2.17, 1.50, 7.76, repro,
2009-02-04,2.05, 0.89, -9.27, 2.20, 1.53, 7.83, repro,
2009-02-05,0.95, 3.84, -5.78, 2.18, 1.50, 7.79, repro,
2009-02-06,0.93, 5.33, -5.16, 2.17, 1.50, 7.86, repro,
2009-02-07,-0.15, 3.98, -16.04, 2.15, 1.51, 7.72, repro,
2009-02-08,1.27, 5.06, -8.73, 2.15, 1.50, 7.69, repro,
2009-02-09,1.87, 5.35, -10.87, 2.13, 1.50, 7.63, repro,
2009-02-10,0.36, 6.09, -14.25, 2.15, 1.50, 7.73, repro,
2009-02-11,0.46, 5.69, -13.00, 2.21, 1.55, 8.00, repro,
2009-02-12,1.07, 5.61, -12.89, 2.20, 1.55, 7.92, repro,
2009-02-13,3.51, 4.66, -16.94, 2.16, 1.50, 7.77, repro,
2009-02-14,1.93, 5.58, -18.89, 2.18, 1.53, 7.78, repro,
2009-02-15,1.80, 4.41, -11.66, 2.17, 1.53, 7.87, repro,
2009-02-16,1.31, 3.62, -2.34, 2.14, 1.50, 7.73, repro,
2009-02-17,1.26, 4.43, -7.98, 2.17, 1.52, 7.98, repro,
2009-02-18,-4.37, 3.35, -10.26, 2.14, 1.51, 7.72, repro,
2009-02-19,-2.22, 2.67, -18.13, 2.15, 1.50, 7.73, repro,
2009-02-20,-0.94, 3.26, -23.20, 2.15, 1.50, 7.68, repro,
2009-02-21,0.46, 2.35, -22.36, 2.15, 1.50, 7.72, repro,
2009-02-22,-7.89, 3.87, -10.66, 2.21, 1.54, 8.03, repro,
2009-02-23,0.56, 5.53, 4.71, 2.20, 1.54, 8.03, repro,
2009-02-24,0.83, 4.14, -6.41, 2.84, 2.30, 8.45, repro,
2009-02-25,-4.87, -1.78, -25.57, 475.46, 417.79, 735.23, repro,
2009-02-26,-1.57, 1.53, -10.17, 2.19, 1.52, 7.87, repro,
2009-02-27,-4.90, 4.71, -24.71, 2.21, 1.55, 7.98, repro,
2009-02-28,-1.20, 3.65, -19.45, 2.14, 1.51, 7.79, repro,
2009-03-01,-1.91, 0.44, -29.41, 2.14, 1.51, 7.71, repro,
2009-03-02,-4.35, 2.42, -18.54, 2.15, 1.51, 7.73, repro,
2009-03-03,-4.54, 1.69, -19.00, 2.19, 1.55, 7.80, repro,
2009-03-04,-2.96, 1.98, -24.02, 2.16, 1.51, 7.79, repro,
2009-03-05,-3.19, 1.04, -17.40, 2.15, 1.51, 7.83, repro,
2009-03-06,-4.28, 2.09, -29.44, 2.18, 1.55, 7.85, repro,
2009-03-07,-4.64, 2.29, -40.87, 2.13, 1.51, 7.67, repro,
2009-03-08,-4.10, 2.40, -36.32, 2.16, 1.51, 7.79, repro,
2009-03-09,-10.04, 3.47, -26.33, 2.16, 1.49, 7.70, repro,
2009-03-10,-6.44, 1.64, -28.33, 2.20, 1.55, 7.86, repro,
2009-03-11,-3.99, 1.70, -27.76, 2.14, 1.51, 7.70, repro,
2009-03-12,-2.42, 1.78, -20.53, 2.14, 1.50, 7.69, repro,
2009-03-13,-2.30, 1.92, -19.44, 2.20, 1.51, 7.85, repro,
2009-03-14,-2.69, 2.48, -17.91, 2.15, 1.50, 7.68, repro,
2009-03-15,-4.10, 1.41, -14.81, 2.18, 1.51, 7.77, repro,
2009-03-16,-4.86, 1.74, -9.66, 2.15, 1.51, 7.73, repro,
2009-03-17,-5.93, 1.84, -13.27, 2.15, 1.51, 7.71, repro,
2009-03-18,-5.33, 2.45, -11.65, 2.18, 1.51, 7.79, repro,
2009-03-19,-3.57, 1.58, -15.17, 2.17, 1.51, 7.76, repro,
2009-03-20,-3.69, 2.41, -21.88, 2.19, 1.50, 7.84, repro,
2009-03-21,-3.51, 2.28, -15.62, 2.18, 1.51, 7.83, repro,
2009-03-22,-3.87, 2.18, -19.79, 2.17, 1.51, 7.78, repro,
2009-03-23,-5.62, 1.35, -13.39, 2.16, 1.50, 7.70, repro,
2009-03-24,-4.10, 3.00, -12.93, 2.16, 1.50, 7.69, repro,
2009-03-25,-3.70, 1.88, -15.06, 2.19, 1.51, 7.88, repro,
2009-03-26,-5.90, 1.28, -7.17, 2.17, 1.50, 7.80, repro,
2009-03-27,-5.57, 0.09, -11.42, 2.24, 1.57, 7.97, repro,
2009-03-28,-3.92, 2.66, -14.60, 2.18, 1.52, 7.90, repro,
2009-03-29,-2.92, 2.27, -12.00, 2.16, 1.51, 7.84, repro,
2009-03-30,-3.87, 2.95, -4.79, 2.18, 1.51, 7.88, repro,
2009-03-31,-4.22, 3.32, -15.94, 2.17, 1.51, 7.89, repro,